Regional Weather Roundup
Issued by NWS

Home | Current Version | Previous Version | Graphics & Text | Print | Product List | Glossary On
Versions: 1 2 3 4 5 6 7 8 9 10 11 12 13 14 15 16 17 18 19 20 21 22 23 24 25 26 27
000
ASUS45 KCYS 270710
RWRWY

WYOMING REGIONAL WEATHER ROUNDUP
NATIONAL WEATHER SERVICE CHEYENNE WY
100 AM MDT TUE SEP 27 2016

NOTE:  "FAIR" INDICATES FEW OR NO CLOUDS BELOW 12,000 FEET
WITH NO SIGNIFICANT WEATHER AND/OR OBSTRUCTIONS TO VISIBILITY.

WYZ001-270800-
YELLOWSTONE NATIONAL PARK

CITY           SKY/WX    TMP DP  RH WIND       PRES   REMARKS
LK YELLOWSTONE   N/A     33  33 100 CALM      30.46F
W YELLOWSTONE  NOT AVBL

$$
WYZ002>013-054>058-071-098>099-270800-
NORTHERN WYOMING

CITY           SKY/WX    TMP DP  RH WIND       PRES   REMARKS
JACKSON        FAIR      39  37  93 CALM      30.38S
CODY           FAIR      51  46  83 CALM      30.24F
GREYBULL       FAIR      51  46  83 S5        30.21F
WORLAND        FAIR      49  46  90 CALM      30.22F
SHERIDAN       FAIR      45  40  82 CALM      30.15F
BUFFALO        FAIR      54  33  45 SW9       30.21F
GILLETTE       FAIR      53  45  74 SW10      30.18F
HULETT         FAIR      48  41  76 CALM      30.20S
NEWCASTLE      FAIR      45  39  81 NE6       30.23F

$$
WYZ014>020-022>026-101>103-270800-
CENTRAL WYOMING

CITY           SKY/WX    TMP DP  RH WIND       PRES   REMARKS
BIG PINEY      FAIR      40  36  86 N6        30.41S
PINEDALE       FAIR      41  36  81 NW8       30.42F
DUBOIS         FAIR      43  37  81 NW17      30.40F
LANDER         FAIR      51  38  60 CALM      30.30F
RIVERTON       FAIR      50  46  86 NW10      30.31F
CASPER         FAIR      47  43  86 W12       30.28F
DOUGLAS        FAIR      42  39  89 CALM      30.26F

$$
WYZ021-027>030-104>119-270800-
SOUTHERN WYOMING

CITY           SKY/WX    TMP DP  RH WIND       PRES   REMARKS
EVANSTON       FAIR      50  34  54 SE6       30.39F
FORT BRIDGER   FAIR      57  36  44 W5        30.41F
ROCK SPRINGS   FAIR      52  39  61 CALM      30.37F
DIXON          FAIR      47  36  66 E8        30.40S
RAWLINS        FAIR      39  35  86 NE3       30.37F
SARATOGA       FAIR      41  34  75 S10       30.39F
LARAMIE        FAIR      42  37  82 S8        30.38F
CHEYENNE       FAIR      46  37  71 W8        30.34F
TORRINGTON     FAIR      50  43  77 NW3       30.23F
PINE BLUFFS    FAIR      41  36  81 W6        30.30F

$$




USA.gov is the U.S. government's official web portal to all federal, state and local government web resources and services.